Zurück zum Katalog

TITAN 3C TRANSTAGE R/B

AktivMEO
NORAD 2868·ROCKET BODY·🇺🇸 United States

Gestartet Jul 1, 1967 von Cape Canaveral Space Force Station

Loading…

Nächste Überflüge (nächste 24 Stunden)

TLE

AktuellSource: Space-Track

Epoche: Sep 14, 2026, 13:14 UTC

1 02868U 67066G   26257.55165745 -.00000112  00000-0  00000-0 0  9994
2 02868   2.5572  95.0003 0083414 179.3428 158.2347  1.08908249129304

Verfolge TITAN 3C TRANSTAGE R/B in Echtzeit mit AllMySat

Download on the App Store